Yankton, SD

9:22 PM CDT on May 28, 2017 (GMT -0500)
Gurney Municipal

Weather History for KYKN - August, 2012

Change the Weather History Date:

Wednesday, August 22, 2012

  Actual Average Record
Temperature  
Mean Temperature 78 °F -  
Max Temperature 93 °F 85 °F 101 °F (1973)
Min Temperature 62 °F 60 °F 48 °F (1974)
Cooling Degree Days 12    
Growing Degree Days 28 (Base 50)    
Moisture  
Dew Point 55 °F    
Average Humidity 45    
Maximum Humidity 82    
Minimum Humidity 24    
Precipitation  
Precipitation 0.00 in - - ()
Sea Level Pressure  
Sea Level Pressure 29.85 in    
Wind  
Wind Speed 12 mph (SSE)    
Max Wind Speed 29 mph    
Max Gust Speed 37 mph    
Visibility 10 miles    
Events      
Averages and records for this station are not official NWS values.
T = Trace of Precipitation, MM = Missing Value Source: NWS Daily Summary

Daily Weather History Graph

Daily Weather History Graph

Search for Another Location

Airport or City:

Trip Planner

Search our weather history database for the weather conditions in past years. The results will help you decide how hot, cold, wet, or windy it might be!

Date:

Astronomy

Aug. 22, 2012 Rise Set
Actual Time 6:43 AM CDT 8:19 PM CDT
Civil Twilight 6:13 AM CDT 8:49 PM CDT
Nautical Twilight 5:37 AM CDT 9:25 PM CDT
Astronomical Twilight 4:58 AM CDT 10:04 PM CDT
Moon 12:35 PM CDT (8/22) 10:51 PM CDT (8/22)
Length of Visible Light 14h 35m
Length of Day
13h 36m
Waxing Crescent, 29% of the Moon is Illuminated
Aug 22
Waxing Crescent
Aug 24
First Quarter
Aug 31
Full
Sep 8
Last Quarter
Sep 15
New

Hourly Weather History & Observations

Time (CDT) Temp. Heat Index Dew Point Humidity Pressure Visibility Wind Dir Wind Speed Gust Speed Precip Events Conditions
12:15 AM 68.0 °F - 55.4 °F 64% 29.91 in 10.0 mi East 9.2 mph - N/A   Clear
12:35 AM 66.2 °F - 57.2 °F 73% 29.91 in 10.0 mi East 8.1 mph - N/A   Clear
12:55 AM 68.0 °F - 57.2 °F 68% 29.91 in 10.0 mi East 6.9 mph - N/A   Clear
1:15 AM 68.0 °F - 57.2 °F 68% 29.91 in 10.0 mi East 6.9 mph - N/A   Clear
1:35 AM 66.2 °F - 57.2 °F 73% 29.90 in 10.0 mi East 8.1 mph - N/A   Partly Cloudy
1:55 AM 66.2 °F - 57.2 °F 73% 29.90 in 10.0 mi East 6.9 mph - N/A   Mostly Cloudy
2:15 AM 64.4 °F - 57.2 °F 77% 29.90 in 10.0 mi East 8.1 mph - N/A   Mostly Cloudy
2:35 AM 66.2 °F - 57.2 °F 73% 29.89 in 10.0 mi SE 5.8 mph - N/A   Clear
2:55 AM 64.4 °F - 57.2 °F 77% 29.89 in 10.0 mi ESE 5.8 mph - N/A   Clear
3:15 AM 62.6 °F - 57.2 °F 82% 29.88 in 10.0 mi East 10.4 mph - N/A   Clear
3:35 AM 64.4 °F - 57.2 °F 77% 29.88 in 10.0 mi East 10.4 mph - N/A   Clear
3:55 AM 66.2 °F - 55.4 °F 68% 29.88 in 10.0 mi SE 8.1 mph - N/A   Clear
4:15 AM 66.2 °F - 53.6 °F 64% 29.88 in 10.0 mi SSE 9.2 mph - N/A   Clear
4:35 AM 69.8 °F - 51.8 °F 53% 29.88 in 10.0 mi SSE 9.2 mph - N/A   Clear
4:55 AM 71.6 °F - 48.2 °F 43% 29.88 in 10.0 mi South 13.8 mph 17.3 mph N/A   Clear
5:15 AM 73.4 °F - 48.2 °F 41% 29.88 in 10.0 mi South 10.4 mph - N/A   Clear
5:35 AM 71.6 °F - 48.2 °F 43% 29.88 in 10.0 mi SSE 9.2 mph - N/A   Clear
5:55 AM 69.8 °F - 50.0 °F 49% 29.88 in 10.0 mi SSE 11.5 mph - N/A   Clear
6:15 AM 71.6 °F - 50.0 °F 46% 29.88 in 10.0 mi South 5.8 mph - N/A   Clear
6:35 AM 69.8 °F - 50.0 °F 49% 29.88 in 10.0 mi SE 3.5 mph - N/A   Clear
6:55 AM 69.8 °F - 50.0 °F 49% 29.88 in 10.0 mi ESE 8.1 mph - N/A   Clear
7:15 AM 69.8 °F - 50.0 °F 49% 29.88 in 10.0 mi ESE 8.1 mph - N/A   Clear
7:35 AM 69.8 °F - 51.8 °F 53% 29.88 in 10.0 mi ESE 9.2 mph - N/A   Clear
7:55 AM 71.6 °F - 51.8 °F 50% 29.88 in 10.0 mi SSE 9.2 mph - N/A   Clear
8:15 AM 73.4 °F - 51.8 °F 47% 29.87 in 10.0 mi SSE 10.4 mph - N/A   Clear
8:35 AM 73.4 °F - 53.6 °F 50% 29.87 in 10.0 mi South 11.5 mph - N/A   Clear
8:55 AM 75.2 °F - 53.6 °F 47% 29.87 in 10.0 mi SSE 11.5 mph - N/A   Clear
9:35 AM 80.6 °F 80.5 °F 55.4 °F 42% 29.87 in 10.0 mi South 11.5 mph - N/A   Unknown
9:55 AM 80.6 °F 80.5 °F 55.4 °F 42% 29.88 in 10.0 mi SSW 13.8 mph - N/A   Clear
10:15 AM 82.4 °F 82.0 °F 57.2 °F 42% 29.88 in 10.0 mi SSW 17.3 mph 23.0 mph N/A   Clear
10:55 AM 87.8 °F 86.5 °F 57.2 °F 35% 29.87 in 10.0 mi SSW 17.3 mph 27.6 mph N/A   Unknown
11:15 AM 89.6 °F 88.1 °F 57.2 °F 33% 29.87 in 10.0 mi SSW 20.7 mph 27.6 mph N/A   Clear
11:35 AM 89.6 °F 88.1 °F 57.2 °F 33% 29.87 in 10.0 mi SSW 18.4 mph 26.5 mph N/A   Clear
11:55 AM 89.6 °F 87.7 °F 55.4 °F 31% 29.86 in 10.0 mi SSW 21.9 mph 26.5 mph N/A   Clear
12:15 PM 91.4 °F 89.4 °F 55.4 °F 29% 29.86 in 10.0 mi South 20.7 mph 31.1 mph N/A   Clear
12:35 PM 91.4 °F - 51.8 °F 26% 29.86 in 10.0 mi SSW 24.2 mph 29.9 mph N/A   Clear
1:15 PM 93.2 °F 90.8 °F 53.6 °F 26% 29.84 in 10.0 mi South 21.9 mph 29.9 mph N/A   Clear
1:35 PM 93.2 °F - 51.8 °F 24% 29.84 in 10.0 mi South 23.0 mph 33.4 mph N/A   Clear
1:55 PM 91.4 °F - 51.8 °F 26% 29.84 in 10.0 mi South 28.8 mph 34.5 mph N/A   Clear
2:15 PM 91.4 °F 89.1 °F 53.6 °F 28% 29.83 in 10.0 mi South 24.2 mph 33.4 mph N/A   Clear
2:55 PM 91.4 °F 89.4 °F 55.4 °F 29% 29.82 in 10.0 mi South 17.3 mph 34.5 mph N/A   Clear
3:15 PM 93.2 °F 91.9 °F 57.2 °F 30% 29.81 in 10.0 mi South 26.5 mph 36.8 mph N/A   Clear
3:35 PM 91.4 °F 89.4 °F 55.4 °F 29% 29.81 in 10.0 mi South 23.0 mph 29.9 mph N/A   Clear
3:55 PM 89.6 °F 88.1 °F 57.2 °F 33% 29.82 in 10.0 mi South 23.0 mph 28.8 mph N/A   Clear
4:15 PM 89.6 °F 88.1 °F 57.2 °F 33% 29.82 in 10.0 mi SSW 25.3 mph 29.9 mph N/A   Clear
4:35 PM 89.6 °F 88.1 °F 57.2 °F 33% 29.82 in 10.0 mi South 25.3 mph 32.2 mph N/A   Clear
4:55 PM 89.6 °F 87.7 °F 55.4 °F 31% 29.83 in 10.0 mi South 23.0 mph 36.8 mph N/A   Clear
5:15 PM 87.8 °F 86.1 °F 55.4 °F 33% 29.83 in 10.0 mi South 16.1 mph 29.9 mph N/A   Clear
5:35 PM 87.8 °F 86.1 °F 55.4 °F 33% 29.82 in 10.0 mi South 19.6 mph 26.5 mph N/A   Clear
5:55 PM 87.8 °F 86.1 °F 55.4 °F 33% 29.82 in 10.0 mi South 20.7 mph 25.3 mph N/A   Clear
6:15 PM 86.0 °F 84.5 °F 55.4 °F 35% 29.81 in 10.0 mi South 15.0 mph 23.0 mph N/A   Clear
6:35 PM 87.8 °F 86.5 °F 57.2 °F 35% 29.80 in 10.0 mi SSE 16.1 mph 25.3 mph N/A   Clear
6:55 PM 89.6 °F 88.1 °F 57.2 °F 33% 29.80 in 10.0 mi South 19.6 mph 27.6 mph N/A   Clear
7:15 PM 89.6 °F 88.1 °F 57.2 °F 33% 29.80 in 10.0 mi South 13.8 mph 23.0 mph N/A   Clear
7:35 PM 87.8 °F 86.5 °F 57.2 °F 35% 29.80 in 10.0 mi South 16.1 mph 20.7 mph N/A   Clear
7:55 PM 86.0 °F 84.9 °F 57.2 °F 37% 29.81 in 10.0 mi South 12.7 mph - N/A   Clear
8:15 PM 84.2 °F 83.5 °F 57.2 °F 40% 29.81 in 10.0 mi SSE 9.2 mph - N/A   Clear
8:35 PM 82.4 °F 82.0 °F 57.2 °F 42% 29.81 in 10.0 mi SSE 12.7 mph - N/A   Clear
8:55 PM 82.4 °F 82.0 °F 57.2 °F 42% 29.81 in 10.0 mi SSE 12.7 mph - N/A   Clear
9:15 PM 80.6 °F 80.8 °F 57.2 °F 45% 29.81 in 10.0 mi SSE 12.7 mph - N/A   Clear
9:35 PM - - - N/A% - 10.0 mi North - - N/A   Unknown
9:55 PM 78.8 °F - 57.2 °F 47% 29.83 in 10.0 mi South 9.2 mph - N/A   Clear
10:15 PM 78.8 °F - 57.2 °F 47% 29.83 in 10.0 mi South 8.1 mph - N/A   Clear
10:35 PM 78.8 °F - 55.4 °F 44% 29.84 in 10.0 mi South 11.5 mph - N/A   Clear
10:55 PM 77.0 °F - 55.4 °F 47% 29.84 in 10.0 mi South 9.2 mph - N/A   Clear
11:15 PM 77.0 °F - 55.4 °F 47% 29.83 in 10.0 mi SSE 10.4 mph - N/A   Clear
11:35 PM 78.8 °F - 53.6 °F 42% 29.82 in 10.0 mi South 12.7 mph 18.4 mph N/A   Clear
11:55 PM 80.6 °F - 51.8 °F 37% 29.82 in 10.0 mi South 11.5 mph - N/A   Clear